Hourly Data Report for October 25, 2014

All times are specified in Local Standard Time (LST). Add 1 hour to adjust for Daylight Saving Time where and when it is observed.

HALL BEACH A
NUNAVUT

68°46'33.000" N
81°14'33.000" W
9.10 m
2402354
71293
YUX

Download Data

Hourly Data (October 2014)
Hourly Data Report for October 25, 2014
Temp Definition
°C
Dew Point Temp Definition
°C
Rel Hum Definition
%
Wind Dir Definition
10's deg

Wind Spd Definition
km/h
Visibility Definition
km
Stn Press Definition
kPa
Hmdx Definition


Wind Chill Definition


Weather Definition


TIME
00:00 Legend Double Dagger -23.1 -25.1 84 31 18 16.1 102.35   -34 LegendNANA
01:00 Legend Double Dagger -22.8 -24.5 86 32 24 16.1 102.32   -35 LegendNANA
02:00 Legend Double Dagger -21.8 -23.7 85 31 22 16.1 102.31   -33 LegendNANA
03:00 Legend Double Dagger -22.1 -23.8 86 32 21 16.1 102.31   -33 LegendNANA
04:00 Legend Double Dagger -21.6 -23.4 86 32 21 16.1 102.27   -33 LegendNANA
05:00 Legend Double Dagger -20.6 -22.2 87 30 18 16.1 102.26   -31 LegendNANA
06:00 Legend Double Dagger -19.9 -21.5 87 31 18 16.1 102.23   -30 Snow
07:00 Legend Double Dagger -21.0 -22.6 87 32 22 16.1 102.23   -32 LegendNANA
08:00 Legend Double Dagger -22.3 -24.1 86 33 21 16.1 102.20   -34 LegendNANA
09:00 Legend Double Dagger -20.0 -21.7 87 32 17 16.1 102.20   -30 Snow
10:00 Legend Double Dagger -18.5 -19.9 89 32 21 16.1 102.17   -29 Snow
11:00 Legend Double Dagger -18.2 -19.7 88 31 18 16.1 102.18   -28 Snow
12:00 Legend Double Dagger -18.1 -19.6 88 31 18 16.1 102.17   -28 Snow
13:00 Legend Double Dagger -16.4 -17.8 89 32 18 16.1 102.17   -25 LegendNANA
14:00 Legend Double Dagger -15.9 -17.3 89 32 17 16.1 102.16   -25 Snow
15:00 Legend Double Dagger -16.1 -17.5 89 31 18 16.1 102.17   -25 Snow
16:00 Legend Double Dagger -16.7 -18.1 89 31 17 16.1 102.17   -26 Snow
17:00 Legend Double Dagger -16.5 -17.9 89 31 17 16.1 102.16   -25 Snow
18:00 Legend Double Dagger -16.6 -18.0 89 32 21 16.1 102.15   -26 Snow
19:00 Legend Double Dagger -16.5 -17.9 89 32 24 16.1 102.14   -27 Snow
20:00 Legend Double Dagger -16.3 -17.7 89 32 21 12.9 102.12   -26 Snow
21:00 Legend Double Dagger -16.5 -17.9 89 33 17 16.1 102.07   -25 Snow
22:00 Legend Double Dagger -16.1 -17.4 90 34 17 16.1 102.03   -25 Snow
23:00 Legend Double Dagger -15.3 -16.6 90 32 17 16.1 102.02   -24 Snow

Notes on Data Quality.

Legend

  • E = Estimated
  • M = Missing
  • NA = Not Available
  • ‡ = Partner data that is not subject to review by the National Climate Archives
Date modified: